Regional Weather Roundup
Issued by NWS

Home | Current Version | Previous Version | Graphics & Text | Print | Product List | Glossary On
Versions: 1 2 3 4 5 6 7 8 9 10 11 12 13 14 15 16 17 18 19 20 21 22 23 24 25 26 27 28
000
ASUS45 KBOI 241310
RWRID

IDAHO REGIONAL WEATHER ROUNDUP
NATIONAL WEATHER SERVICE BOISE ID
700 AM MDT SAT JUN 24 2017

NOTE: "FAIR" INDICATES FEW OR NO CLOUDS BELOW 12000 FEET
WITH NO SIGNIFICANT WEATHER AND/OR OBSTRUCTIONS TO VISIBILITY

IDZ012-014-241400-
SOUTHWEST IDAHO


CITY           SKY/WX    TMP DP  RH WIND       PRES   REMARKS
BOISE          CLEAR     57  40  52 S3        30.16R
CALDWELL       CLEAR     57  43  59 S5        30.16R
MOUNTAIN HOME  CLEAR     53  37  56 NE3       30.17R
$$

IDZ016-017-241400-
SOUTHCENTRAL IDAHO


CITY           SKY/WX    TMP DP  RH WIND       PRES   REMARKS
BURLEY         CLEAR     50  38  63 MISG      30.21R
JEROME         CLEAR     54  34  46 SE5       30.21R
TWIN FALLS     CLEAR     58  31  35 S12       30.21R
$$

IDZ019>023-241400-
SOUTHEAST IDAHO


CITY           SKY/WX    TMP DP  RH WIND       PRES   REMARKS
IDAHO FALLS    SUNNY     45  42  89 N5        30.27R
POCATELLO      SUNNY     48  41  76 E3        30.25R
REXBURG        SUNNY     46  39  76 NE6       30.28R
$$

IDZ006-010-011-018-031-032-241400-
CENTRAL IDAHO MOUNTAINS


CITY           SKY/WX    TMP DP  RH WIND       PRES   REMARKS
MCCALL         CLEAR     41  35  79 CALM      30.26R
HAILEY         CLEAR     48  37  66 NW7       30.29R
STANLEY          N/A     36  32  85 S3        30.37R
SALMON         SUNNY     43  37  81 CALM      30.29R
CHALLIS        CLEAR     50  34  54 CALM      30.30R
$$

IDZ002-004-006-007-026-241400-
NORTHERN IDAHO


CITY           SKY/WX    TMP DP  RH WIND       PRES   REMARKS
LEWISTON       CLEAR     56  43  61 E5        30.21
LOWELL           N/A     47  43  86 CALM      30.29R
COEUR D`ALENE  CLEAR     55  44  66 E6        30.25R
MULLAN PASS    CLEAR     53  30  41 CALM      30.35R
$$




USA.gov is the U.S. government's official web portal to all federal, state and local government web resources and services.